Time,TemperatureF,DewpointF,PressureIn,WindDirection,WindDirectionDegrees,WindSpeedMPH,WindSpeedGustMPH,Humidity,HourlyPrecipIn,Conditions,Clouds,dailyrainin,SoftwareType,DateUTC
2013-02-14 00:02:00,39.0,29.0,-100.00,South,175,4.0,8.0,66,-99.99,,,-99.99,,2013-02-14 06:02:00,
2013-02-14 00:11:00,40.0,29.0,-100.00,SSE,165,2.0,6.0,66,-99.99,,,-99.99,,2013-02-14 06:11:00,
2013-02-14 00:21:00,40.0,29.0,-100.00,SE,140,2.0,9.0,66,-99.99,,,-99.99,,2013-02-14 06:21:00,
2013-02-14 00:32:00,40.0,29.0,-100.00,SE,140,2.0,9.0,66,-99.99,,,-99.99,,2013-02-14 06:32:00,
2013-02-14 00:42:00,40.0,29.0,-100.00,South,180,2.0,8.0,66,-99.99,,,-99.99,,2013-02-14 06:42:00,
2013-02-14 00:52:00,40.0,29.0,-100.00,SSE,160,2.0,7.0,66,-99.99,,,-99.99,,2013-02-14 06:52:00,
2013-02-14 01:01:00,40.0,29.0,-100.00,SSE,160,2.0,7.0,66,-99.99,,,-99.99,,2013-02-14 07:01:00,
2013-02-14 01:11:00,40.0,30.0,-100.00,SSE,165,1.0,7.0,66,-99.99,,,-99.99,,2013-02-14 07:11:00,
2013-02-14 01:21:00,40.0,30.0,-100.00,SE,140,4.0,7.0,67,-99.99,,,-99.99,,2013-02-14 07:21:00,
2013-02-14 01:32:00,40.0,30.0,-100.00,SE,140,4.0,7.0,67,-99.99,,,-99.99,,2013-02-14 07:32:00,
2013-02-14 01:41:00,40.0,30.0,-100.00,SSE,155,2.0,6.0,66,-99.99,,,-99.99,,2013-02-14 07:41:00,
2013-02-14 01:52:00,41.0,30.0,-100.00,South,175,4.0,11.0,64,-99.99,,,-99.99,,2013-02-14 07:52:00,
2013-02-14 02:01:00,41.0,30.0,-100.00,South,175,4.0,11.0,64,-99.99,,,-99.99,,2013-02-14 08:01:00,
2013-02-14 02:11:00,41.0,29.0,-100.00,South,180,3.0,10.0,63,-99.99,,,-99.99,,2013-02-14 08:11:00,
2013-02-14 02:21:00,41.0,29.0,-100.00,South,190,6.0,9.0,62,-99.99,,,-99.99,,2013-02-14 08:21:00,
2013-02-14 02:32:00,41.0,29.0,-100.00,South,190,6.0,9.0,62,-99.99,,,-99.99,,2013-02-14 08:32:00,
2013-02-14 02:43:00,42.0,29.0,-100.00,SSW,210,4.0,14.0,62,-99.99,,,-99.99,,2013-02-14 08:43:00,
2013-02-14 02:52:00,41.0,29.0,-100.00,SSW,205,8.0,14.0,62,-99.99,,,-99.99,,2013-02-14 08:52:00,
2013-02-14 03:02:00,41.0,29.0,-100.00,SSW,205,8.0,14.0,62,-99.99,,,-99.99,,2013-02-14 09:02:00,
2013-02-14 03:11:00,40.0,29.0,-100.00,SSW,205,7.0,16.0,63,-99.99,,,-99.99,,2013-02-14 09:11:00,
2013-02-14 03:21:00,40.0,29.0,-100.00,South,190,6.0,15.0,65,-99.99,,,-99.99,,2013-02-14 09:21:00,
2013-02-14 03:32:00,40.0,29.0,-100.00,South,190,6.0,15.0,65,-99.99,,,-99.99,,2013-02-14 09:32:00,
2013-02-14 03:42:00,40.0,29.0,-100.00,SSW,195,4.0,15.0,66,-99.99,,,-99.99,,2013-02-14 09:42:00,
2013-02-14 03:52:00,39.0,29.0,-100.00,SSW,205,5.0,11.0,67,-99.99,,,-99.99,,2013-02-14 09:52:00,
2013-02-14 04:02:00,39.0,29.0,-100.00,SSW,205,5.0,11.0,67,-99.99,,,-99.99,,2013-02-14 10:02:00,
2013-02-14 04:11:00,38.0,29.0,-100.00,SSW,200,4.0,9.0,69,-99.99,,,-99.99,,2013-02-14 10:11:00,
2013-02-14 04:21:00,38.0,29.0,-100.00,SW,220,5.0,11.0,69,-99.99,,,-99.99,,2013-02-14 10:21:00,
2013-02-14 04:31:00,38.0,29.0,-100.00,SW,220,5.0,11.0,69,-99.99,,,-99.99,,2013-02-14 10:31:00,
2013-02-14 04:42:00,38.0,29.0,-100.00,SW,230,3.0,9.0,70,-99.99,,,-99.99,,2013-02-14 10:42:00,
2013-02-14 04:52:00,37.0,29.0,-100.00,WSW,240,6.0,14.0,72,-99.99,,,-99.99,,2013-02-14 10:52:00,
2013-02-14 05:02:00,37.0,29.0,-100.00,WSW,240,6.0,14.0,72,-99.99,,,-99.99,,2013-02-14 11:02:00,
2013-02-14 05:11:00,38.0,30.0,-100.00,WSW,245,6.0,21.0,73,-99.99,,,-99.99,,2013-02-14 11:11:00,
2013-02-14 05:21:00,38.0,30.0,-100.00,WSW,250,6.0,19.0,74,-99.99,,,-99.99,,2013-02-14 11:21:00,
2013-02-14 05:32:00,38.0,30.0,-100.00,WSW,250,6.0,19.0,74,-99.99,,,-99.99,,2013-02-14 11:32:00,
2013-02-14 05:42:00,37.0,30.0,-100.00,WSW,255,9.0,16.0,75,-99.99,,,-99.99,,2013-02-14 11:42:00,
2013-02-14 05:52:00,37.0,30.0,-100.00,WSW,240,10.0,16.0,76,-99.99,,,-99.99,,2013-02-14 11:52:00,
2013-02-14 06:02:00,37.0,30.0,-100.00,WSW,240,10.0,16.0,76,-99.99,,,-99.99,,2013-02-14 12:02:00,
2013-02-14 06:12:00,37.0,30.0,-100.00,SW,230,9.0,19.0,76,-99.99,,,-99.99,,2013-02-14 12:12:00,
2013-02-14 06:22:00,37.0,30.0,-100.00,SW,225,10.0,28.0,76,-99.99,,,-99.99,,2013-02-14 12:22:00,
2013-02-14 06:32:00,37.0,30.0,-100.00,SW,225,10.0,28.0,76,-99.99,,,-99.99,,2013-02-14 12:32:00,
2013-02-14 06:42:00,37.0,31.0,-100.00,SW,225,9.0,21.0,76,-99.99,,,-99.99,,2013-02-14 12:42:00,
2013-02-14 06:53:00,37.0,30.0,-100.00,WSW,245,9.0,22.0,75,-99.99,,,-99.99,,2013-02-14 12:53:00,
2013-02-14 07:02:00,37.0,30.0,-100.00,WSW,245,9.0,22.0,75,-99.99,,,-99.99,,2013-02-14 13:02:00,
2013-02-14 07:11:00,37.0,30.0,-100.00,WSW,245,11.0,19.0,75,-99.99,,,-99.99,,2013-02-14 13:11:00,
2013-02-14 07:21:00,38.0,30.0,-100.00,WSW,245,14.0,23.0,74,-99.99,,,-99.99,,2013-02-14 13:21:00,
2013-02-14 07:31:00,38.0,30.0,-100.00,WSW,245,14.0,23.0,74,-99.99,,,-99.99,,2013-02-14 13:31:00,
2013-02-14 07:42:00,38.0,30.0,-100.00,WSW,245,14.0,23.0,74,-99.99,,,-99.99,,2013-02-14 13:42:00,
2013-02-14 07:52:00,37.0,30.0,-100.00,West,260,11.0,25.0,76,-99.99,,,-99.99,,2013-02-14 13:52:00,
2013-02-14 08:01:00,37.0,30.0,-100.00,West,260,11.0,25.0,76,-99.99,,,-99.99,,2013-02-14 14:01:00,
2013-02-14 08:11:00,36.0,29.0,-100.00,WSW,245,16.0,28.0,74,-99.99,,,-99.99,,2013-02-14 14:11:00,
2013-02-14 08:21:00,36.0,29.0,-100.00,West,265,9.0,22.0,74,-99.99,,,-99.99,,2013-02-14 14:21:00,
2013-02-14 08:31:00,36.0,29.0,-100.00,West,265,9.0,22.0,74,-99.99,,,-99.99,,2013-02-14 14:31:00,
2013-02-14 08:41:00,36.0,29.0,-100.00,WSW,240,11.0,21.0,75,-99.99,,,-99.99,,2013-02-14 14:41:00,
2013-02-14 08:52:00,36.0,29.0,-100.00,West,260,12.0,21.0,74,-99.99,,,-99.99,,2013-02-14 14:52:00,
2013-02-14 09:02:00,36.0,29.0,-100.00,West,260,12.0,21.0,74,-99.99,,,-99.99,,2013-02-14 15:02:00,
2013-02-14 09:11:00,36.0,29.0,-100.00,WSW,245,11.0,24.0,74,-99.99,,,-99.99,,2013-02-14 15:11:00,
2013-02-14 09:21:00,36.0,29.0,-100.00,WSW,250,12.0,24.0,75,-99.99,,,-99.99,,2013-02-14 15:21:00,
2013-02-14 09:32:00,36.0,29.0,-100.00,WSW,250,12.0,24.0,75,-99.99,,,-99.99,,2013-02-14 15:32:00,
2013-02-14 09:42:00,36.0,29.0,-100.00,WSW,250,14.0,23.0,75,-99.99,,,-99.99,,2013-02-14 15:42:00,
2013-02-14 09:52:00,37.0,29.0,-100.00,West,260,9.0,26.0,74,-99.99,,,-99.99,,2013-02-14 15:52:00,
2013-02-14 10:02:00,37.0,29.0,-100.00,West,260,9.0,26.0,74,-99.99,,,-99.99,,2013-02-14 16:02:00,
2013-02-14 10:11:00,37.0,29.0,-100.00,WSW,250,14.0,23.0,74,-99.99,,,-99.99,,2013-02-14 16:11:00,
2013-02-14 10:21:00,37.0,30.0,-100.00,West,265,15.0,25.0,75,-99.99,,,-99.99,,2013-02-14 16:21:00,
2013-02-14 10:32:00,37.0,30.0,-100.00,West,265,15.0,25.0,75,-99.99,,,-99.99,,2013-02-14 16:32:00,
2013-02-14 10:41:00,37.0,30.0,-100.00,West,270,13.0,25.0,76,-99.99,,,-99.99,,2013-02-14 16:41:00,
2013-02-14 10:52:00,37.0,30.0,-100.00,West,270,11.0,21.0,76,-99.99,,,-99.99,,2013-02-14 16:52:00,
2013-02-14 11:01:00,37.0,30.0,-100.00,West,270,11.0,21.0,76,-99.99,,,-99.99,,2013-02-14 17:01:00,
2013-02-14 11:11:00,37.0,30.0,-100.00,West,265,14.0,24.0,74,-99.99,,,-99.99,,2013-02-14 17:11:00,
2013-02-14 11:21:00,37.0,30.0,-100.00,West,260,15.0,21.0,74,-99.99,,,-99.99,,2013-02-14 17:21:00,
2013-02-14 11:32:00,37.0,30.0,-100.00,West,260,15.0,21.0,74,-99.99,,,-99.99,,2013-02-14 17:32:00,
2013-02-14 11:42:00,38.0,29.0,-100.00,West,280,13.0,21.0,72,-99.99,,,-99.99,,2013-02-14 17:42:00,
2013-02-14 11:52:00,38.0,30.0,-100.00,WSW,250,13.0,22.0,72,-99.99,,,-99.99,,2013-02-14 17:52:00,
2013-02-14 12:01:00,38.0,30.0,-100.00,WSW,250,13.0,22.0,72,-99.99,,,-99.99,,2013-02-14 18:01:00,
2013-02-14 12:11:00,38.0,30.0,-100.00,West,265,9.0,22.0,72,-99.99,,,-99.99,,2013-02-14 18:11:00,
2013-02-14 12:23:00,39.0,29.0,-100.00,West,270,14.0,21.0,68,-99.99,,,-99.99,,2013-02-14 18:23:00,
2013-02-14 12:32:00,39.0,29.0,-100.00,West,270,14.0,21.0,68,-99.99,,,-99.99,,2013-02-14 18:32:00,
2013-02-14 12:42:00,39.0,29.0,-100.00,West,280,11.0,24.0,66,-99.99,,,-99.99,,2013-02-14 18:42:00,
2013-02-14 12:52:00,40.0,28.0,-100.00,West,275,13.0,26.0,63,-99.99,,,-99.99,,2013-02-14 18:52:00,
2013-02-14 13:02:00,40.0,28.0,-100.00,West,275,13.0,26.0,63,-99.99,,,-99.99,,2013-02-14 19:02:00,
2013-02-14 13:11:00,39.0,28.0,-100.00,WNW,285,14.0,21.0,64,-99.99,,,-99.99,,2013-02-14 19:11:00,
2013-02-14 13:21:00,39.0,28.0,-100.00,WNW,285,14.0,26.0,64,-99.99,,,-99.99,,2013-02-14 19:21:00,
2013-02-14 13:31:00,39.0,28.0,-100.00,WNW,285,14.0,26.0,64,-99.99,,,-99.99,,2013-02-14 19:31:00,
2013-02-14 13:42:00,40.0,28.0,-100.00,West,265,12.0,21.0,63,-99.99,,,-99.99,,2013-02-14 19:42:00,
2013-02-14 13:52:00,40.0,29.0,-100.00,West,265,13.0,21.0,64,-99.99,,,-99.99,,2013-02-14 19:52:00,
2013-02-14 14:01:00,40.0,29.0,-100.00,West,265,13.0,21.0,64,-99.99,,,-99.99,,2013-02-14 20:01:00,
2013-02-14 14:11:00,40.0,28.0,-100.00,West,280,14.0,21.0,60,-99.99,,,-99.99,,2013-02-14 20:11:00,
2013-02-14 14:21:00,41.0,27.0,-100.00,West,270,10.0,27.0,58,-99.99,,,-99.99,,2013-02-14 20:21:00,
2013-02-14 14:32:00,41.0,27.0,-100.00,West,270,10.0,27.0,58,-99.99,,,-99.99,,2013-02-14 20:32:00,
2013-02-14 14:42:00,39.0,26.0,-100.00,WNW,285,11.0,19.0,59,-99.99,,,-99.99,,2013-02-14 20:42:00,
2013-02-14 14:52:00,40.0,26.0,-100.00,West,280,8.0,23.0,58,-99.99,,,-99.99,,2013-02-14 20:52:00,
2013-02-14 15:02:00,40.0,26.0,-100.00,West,280,8.0,23.0,58,-99.99,,,-99.99,,2013-02-14 21:02:00,
2013-02-14 15:11:00,39.0,27.0,-100.00,West,280,9.0,17.0,61,-99.99,,,-99.99,,2013-02-14 21:11:00,
2013-02-14 15:21:00,40.0,25.0,-100.00,WNW,290,9.0,16.0,56,-99.99,,,-99.99,,2013-02-14 21:21:00,
2013-02-14 15:31:00,40.0,25.0,-100.00,WNW,290,9.0,16.0,56,-99.99,,,-99.99,,2013-02-14 21:31:00,
2013-02-14 15:42:00,39.0,26.0,-100.00,WNW,300,11.0,16.0,59,-99.99,,,-99.99,,2013-02-14 21:42:00,
2013-02-14 15:52:00,39.0,26.0,-100.00,WNW,285,9.0,14.0,59,-99.99,,,-99.99,,2013-02-14 21:52:00,
2013-02-14 16:02:00,39.0,26.0,-100.00,WNW,285,9.0,14.0,59,-99.99,,,-99.99,,2013-02-14 22:02:00,
2013-02-14 16:11:00,39.0,26.0,-100.00,WNW,285,8.0,15.0,58,-99.99,,,-99.99,,2013-02-14 22:11:00,
2013-02-14 16:21:00,39.0,26.0,-100.00,West,265,8.0,14.0,60,-99.99,,,-99.99,,2013-02-14 22:21:00,
2013-02-14 16:31:00,39.0,26.0,-100.00,West,265,8.0,14.0,60,-99.99,,,-99.99,,2013-02-14 22:31:00,
2013-02-14 16:42:00,39.0,26.0,-100.00,West,275,8.0,19.0,59,-99.99,,,-99.99,,2013-02-14 22:42:00,
2013-02-14 16:52:00,39.0,27.0,-100.00,WSW,250,10.0,17.0,61,-99.99,,,-99.99,,2013-02-14 22:52:00,
2013-02-14 17:01:00,39.0,27.0,-100.00,WSW,250,10.0,17.0,61,-99.99,,,-99.99,,2013-02-14 23:01:00,
2013-02-14 17:11:00,38.0,27.0,-100.00,West,260,6.0,18.0,63,-99.99,,,-99.99,,2013-02-14 23:11:00,
2013-02-14 17:21:00,39.0,28.0,-100.00,WSW,245,4.0,11.0,64,-99.99,,,-99.99,,2013-02-14 23:21:00,
2013-02-14 17:32:00,39.0,28.0,-100.00,WSW,245,4.0,11.0,64,-99.99,,,-99.99,,2013-02-14 23:32:00,
2013-02-14 17:41:00,38.0,28.0,-100.00,West,260,6.0,14.0,67,-99.99,,,-99.99,,2013-02-14 23:41:00,
2013-02-14 17:52:00,38.0,29.0,-100.00,WSW,250,6.0,14.0,68,-99.99,,,-99.99,,2013-02-14 23:52:00,
2013-02-14 18:01:00,38.0,29.0,-100.00,WSW,250,6.0,14.0,68,-99.99,,,-99.99,,2013-02-15 00:01:00,
2013-02-14 18:11:00,38.0,29.0,-100.00,WSW,245,9.0,14.0,69,-99.99,,,-99.99,,2013-02-15 00:11:00,
2013-02-14 18:22:00,38.0,29.0,-100.00,West,275,6.0,13.0,71,-99.99,,,-99.99,,2013-02-15 00:22:00,
2013-02-14 18:32:00,38.0,29.0,-100.00,West,275,6.0,13.0,71,-99.99,,,-99.99,,2013-02-15 00:32:00,
2013-02-14 18:42:00,38.0,29.0,-100.00,West,280,8.0,16.0,71,-99.99,,,-99.99,,2013-02-15 00:42:00,
2013-02-14 18:52:00,37.0,30.0,-100.00,WNW,285,6.0,12.0,75,-99.99,,,-99.99,,2013-02-15 00:52:00,
2013-02-14 19:02:00,37.0,30.0,-100.00,WNW,285,6.0,12.0,75,-99.99,,,-99.99,,2013-02-15 01:02:00,
2013-02-14 19:11:00,36.0,30.0,-100.00,WNW,295,6.0,14.0,78,-99.99,,,-99.99,,2013-02-15 01:11:00,
2013-02-14 19:21:00,35.0,30.0,-100.00,West,280,5.0,9.0,82,-99.99,,,-99.99,,2013-02-15 01:21:00,
2013-02-14 19:31:00,35.0,30.0,-100.00,West,280,5.0,9.0,82,-99.99,,,-99.99,,2013-02-15 01:31:00,
2013-02-14 19:41:00,35.0,30.0,-100.00,West,280,5.0,9.0,82,-99.99,,,-99.99,,2013-02-15 01:41:00,
2013-02-14 19:52:00,35.0,31.0,-100.00,WNW,290,6.0,10.0,85,-99.99,,,-99.99,,2013-02-15 01:52:00,
2013-02-14 20:01:00,35.0,31.0,-100.00,WNW,290,6.0,10.0,85,-99.99,,,-99.99,,2013-02-15 02:01:00,
2013-02-14 20:11:00,35.0,31.0,-100.00,WNW,285,5.0,9.0,86,-99.99,,,-99.99,,2013-02-15 02:11:00,
2013-02-14 20:21:00,34.0,31.0,-100.00,WNW,285,4.0,8.0,88,-99.99,,,-99.99,,2013-02-15 02:21:00,
2013-02-14 20:31:00,34.0,31.0,-100.00,WNW,285,4.0,6.0,89,-99.99,,,-99.99,,2013-02-15 02:31:00,
2013-02-14 20:41:00,34.0,31.0,-100.00,WNW,285,4.0,6.0,89,-99.99,,,-99.99,,2013-02-15 02:41:00,
2013-02-14 20:52:00,34.0,31.0,-100.00,West,270,4.0,7.0,89,-99.99,,,-99.99,,2013-02-15 02:52:00,
2013-02-14 21:02:00,34.0,31.0,-100.00,West,270,4.0,7.0,89,-99.99,,,-99.99,,2013-02-15 03:02:00,
2013-02-14 21:11:00,34.0,31.0,-100.00,WNW,290,5.0,9.0,89,-99.99,,,-99.99,,2013-02-15 03:11:00,
2013-02-14 21:22:00,34.0,31.0,-100.00,WNW,295,5.0,11.0,89,-99.99,,,-99.99,,2013-02-15 03:22:00,
2013-02-14 21:32:00,34.0,31.0,-100.00,WNW,295,5.0,11.0,89,-99.99,,,-99.99,,2013-02-15 03:32:00,
2013-02-14 21:42:00,34.0,30.0,-100.00,WNW,300,6.0,10.0,88,-99.99,,,-99.99,,2013-02-15 03:42:00,
2013-02-14 21:52:00,33.0,30.0,-100.00,West,280,7.0,11.0,87,-99.99,,,-99.99,,2013-02-15 03:52:00,
2013-02-14 22:01:00,33.0,30.0,-100.00,West,280,7.0,11.0,87,-99.99,,,-99.99,,2013-02-15 04:01:00,
2013-02-14 22:11:00,33.0,30.0,-100.00,WNW,290,7.0,11.0,86,-99.99,,,-99.99,,2013-02-15 04:11:00,
2013-02-14 22:21:00,33.0,30.0,-100.00,WNW,285,6.0,10.0,87,-99.99,,,-99.99,,2013-02-15 04:21:00,
2013-02-14 22:32:00,33.0,30.0,-100.00,WNW,285,6.0,10.0,87,-99.99,,,-99.99,,2013-02-15 04:32:00,
2013-02-14 22:42:00,33.0,29.0,-100.00,WNW,285,7.0,11.0,86,-99.99,,,-99.99,,2013-02-15 04:42:00,
2013-02-14 22:52:00,32.0,29.0,-100.00,West,275,6.0,12.0,87,-99.99,,,-99.99,,2013-02-15 04:52:00,
2013-02-14 23:02:00,32.0,29.0,-100.00,West,275,6.0,12.0,87,-99.99,,,-99.99,,2013-02-15 05:02:00,
2013-02-14 23:12:00,32.0,28.0,-100.00,West,275,8.0,13.0,86,-99.99,,,-99.99,,2013-02-15 05:12:00,
2013-02-14 23:22:00,32.0,28.0,-100.00,West,270,8.0,12.0,86,-99.99,,,-99.99,,2013-02-15 05:22:00,
2013-02-14 23:32:00,32.0,28.0,-100.00,West,270,8.0,12.0,86,-99.99,,,-99.99,,2013-02-15 05:32:00,
2013-02-14 23:42:00,31.0,28.0,-100.00,West,280,9.0,11.0,87,-99.99,,,-99.99,,2013-02-15 05:42:00,
2013-02-14 23:52:00,31.0,27.0,-100.00,West,275,9.0,14.0,86,-99.99,,,-99.99,,2013-02-15 05:52:00,